| time (UTC) | temp F | wind direction | speed knots | gust knots | rain 1hr in | rain 24hr in | rain mn in | humidity % | barometer mb |
| 20260506132735 | 75 | 171 | 0.9 | 7.0 | 0.00 | 0.00 | 0.00 | 92 | 1006.3 |
| 20260506125735 | 75 | 172 | 0.0 | 6.1 | 0.00 | 0.00 | 0.00 | 93 | 1006.0 |
| 20260506122734 | 75 | 172 | 0.0 | 0.0 | 0.00 | 0.00 | 0.00 | 93 | 1005.6 |
| 20260506115733 | 75 | 172 | 0.0 | 0.0 | 0.00 | 0.00 | 0.00 | 92 | 1005.9 |
| 20260506095730 | 75 | 172 | 0.0 | 7.8 | 0.00 | 0.00 | 0.00 | 91 | 1005.4 |
| 20260506092730 | 75 | 172 | 0.0 | 7.8 | 0.00 | 0.00 | 0.00 | 91 | 1004.9 |
| 20260506085729 | 75 | 173 | 0.9 | 8.7 | 0.00 | 0.00 | 0.00 | 90 | 1004.4 |
| 20260506082728 | 76 | 172 | 3.5 | 10.4 | 0.00 | 0.00 | 0.00 | 90 | 1004.5 |
| 20260506072756 | 76 | 170 | 5.2 | 12.2 | 0.00 | 0.00 | 0.00 | 90 | 1005.1 |
| 20260506035751 | 77 | 159 | 3.5 | 10.4 | 0.00 | 0.00 | 0.00 | 88 | 1004.6 |
| 20260506032750 | 78 | 164 | 1.7 | 7.8 | 0.00 | 0.00 | 0.00 | 86 | 1004.2 |
| 20260506022749 | 79 | 165 | 5.2 | 7.8 | 0.00 | 0.00 | 0.00 | 83 | 1003.3 |
| 20260506015748 | 79 | 165 | 0.0 | 7.8 | 0.00 | 0.00 | 0.00 | 81 | 1002.7 |
| 20260506012747 | 80 | 169 | 1.7 | 10.4 | 0.00 | 0.00 | 0.00 | 79 | 1002.7 |
| 20260506005747 | 82 | 170 | 0.0 | 7.8 | 0.00 | 0.00 | 0.00 | 76 | 1002.7 |
| 20260506002746 | 82 | 170 | 5.2 | 8.7 | 0.00 | 0.00 | 0.00 | 74 | 1002.7 |
| 20260505235745 | 83 | 169 | 8.7 | 11.3 | 0.00 | 0.00 | 0.00 | 73 | 1002.7 |
| 20260505232744 | 83 | 175 | 1.7 | 11.3 | 0.00 | 0.00 | 0.00 | 72 | 1002.4 |
| 20260505225743 | 84 | 177 | 6.1 | 13.0 | 0.00 | 0.00 | 0.00 | 71 | 1002.4 |
| 20260505222743 | 85 | 162 | 10.4 | 13.0 | 0.00 | 0.00 | 0.00 | 69 | 1002.2 |
| 20260505215742 | 85 | 163 | 0.9 | 13.0 | 0.00 | 0.00 | 0.00 | 68 | 1002.4 |
| 20260505212741 | 85 | 174 | 9.6 | 13.9 | 0.00 | 0.00 | 0.00 | 69 | 1002.8 |
| 20260505205740 | 84 | 146 | 11.3 | 13.0 | 0.00 | 0.00 | 0.00 | 71 | 1002.9 |
| 20260505202740 | 84 | 165 | 6.1 | 13.0 | 0.00 | 0.00 | 0.00 | 71 | 1003.5 |
| 20260505192738 | 82 | 200 | 3.5 | 13.0 | 0.00 | 0.00 | 0.00 | 72 | 1004.2 |
| 20260505185737 | 81 | 203 | 2.6 | 8.7 | 0.00 | 0.00 | 0.00 | 75 | 1004.4 |
| 20260505182736 | 79 | 184 | 1.7 | 13.0 | 0.00 | 0.00 | 0.00 | 78 | 1004.8 |
| 20260505175736 | 77 | 187 | 5.2 | 12.2 | 0.00 | 0.00 | 0.00 | 82 | 1004.9 |
| 20260505172735 | 76 | 198 | 2.6 | 12.2 | 0.00 | 0.00 | 0.00 | 84 | 1005.2 |
| 20260505152732 | 72 | 200 | 1.7 | 8.7 | 0.00 | 0.00 | 0.00 | 91 | 1005.3 |